Location: Long Island Community Building
(39.9491°N, 99.5338°W)
Time: 15:57:55
(UTC+00:00)

Cosmos 407 Rocket - Pass Details

Date: 06 December 2019
Orbit: 743 x 787 km, 74.0° (Epoch: 27 January)

Event Time Altitude Azimuth Distance (km) Brightness Sun altitude
Exits shadow 12:23:32 15° 326° (NW) 2,004 5.2 -15.2°
Maximum altitude 12:27:42 48° 257° (WSW) 1,018 3.8 -14.5°
Drops below altitude 10° 12:32:49 10° 184° (S) 2,339 6.2 -13.5°
Sets 12:35:15 0° 178° (S) 3,262 7.0 -13.1°
